KG4K-13 Weather Reports


time (UTC)temp
C
wind
direction
speed
KPH
gust
KPH
rain 1hr
cm
rain 24hr
cm
rain mn
cm
humidity
%
barometer
mb
20260504081519 12 234 0.0 3.2 0.00 0.00 0.00 64 1016.0
20260504080520 12 247 0.0 1.6 0.00 0.00 0.00 62 1016.0
20260504050517 9 297 0.0 1.6 0.00 0.00 0.00 71 1016.2
20260504045537 9 299 0.0 1.6 0.00 0.00 0.00 71 1016.2
20260504044518 9 29 0.0 1.6 0.00 0.00 0.00 70 1016.3
20260504043518 8 32 0.0 1.6 0.00 0.00 0.00 71 1016.2
20260504042518 8 343 0.0 1.6 0.00 0.00 0.00 73 1016.3
20260504041518 8 310 0.0 1.6 0.00 0.00 0.00 77 1016.3
20260504040515 8 301 0.0 1.6 0.00 0.00 0.00 84 1016.2
20260504035516 7 332 0.0 1.6 0.00 0.00 0.00 81 1016.2
20260504034516 7 296 0.0 1.6 0.00 0.00 0.00 84 1016.1
20260504033516 8 308 0.0 1.6 0.00 0.00 0.00 83 1016.1
20260504032516 8 309 1.6 3.2 0.00 0.00 0.00 83 1015.9
20260504031516 8 290 0.0 1.6 0.00 0.00 0.00 82 1015.8
20260504030516 8 9 0.0 1.6 0.00 0.00 0.00 82 1015.8
20260504025516 8 295 0.0 3.2 0.00 0.00 0.00 81 1015.8
20260504024536 8 318 0.0 1.6 0.00 0.00 0.00 80 1015.8
20260504023517 8 340 0.0 1.6 0.00 0.00 0.00 79 1015.8
20260504022517 8 307 0.0 1.6 0.00 0.00 0.00 78 1015.8
20260504021517 9 313 0.0 1.6 0.00 0.00 0.00 77 1015.8
20260504020517 9 312 0.0 1.6 0.00 0.00 0.00 76 1015.7
20260504015518 10 293 0.0 1.6 0.00 0.00 0.00 74 1015.7
20260504014518 10 292 0.0 1.6 0.00 0.00 0.00 72 1015.7
20260504013518 10 298 1.6 3.2 0.00 0.00 0.00 72 1015.6
20260504012518 10 292 1.6 3.2 0.00 0.00 0.00 71 1015.5
20260504011515 11 295 0.0 3.2 0.00 0.00 0.00 67 1015.4
20260504010518 11 294 0.0 1.6 0.00 0.00 0.00 61 1015.4
20260504005515 11 277 0.0 1.6 0.00 0.00 0.00 60 1015.4
20260504004515 12 288 0.0 1.6 0.00 0.00 0.00 60 1015.3
20260504003516 13 259 0.0 1.6 0.00 0.00 0.00 53 1015.2
20260504002516 13 291 0.0 1.6 0.00 0.00 0.00 47 1015.0
20260504001516 14 288 0.0 1.6 0.00 0.00 0.00 42 1014.9
20260504000516 15 284 0.0 1.6 0.00 0.00 0.00 41 1014.9
20260503235516 15 263 0.0 1.6 0.00 0.00 0.00 39 1014.8
20260503234516 15 301 1.6 3.2 0.00 0.00 0.00 38 1014.6
20260503233517 16 310 3.2 4.8 0.00 0.00 0.00 38 1014.6
20260503232517 16 306 3.2 6.4 0.00 0.00 0.00 36 1014.5
20260503231517 17 318 3.2 9.7 0.00 0.00 0.00 34 1014.5
20260503230518 17 310 3.2 6.4 0.00 0.00 0.00 35 1014.5
20260503225538 17 315 6.4 11.3 0.00 0.00 0.00 34 1014.5
20260503224518 17 313 6.4 11.3 0.00 0.00 0.00 34 1014.6
20260503223535 17 314 4.8 9.7 0.00 0.00 0.00 34 1014.6
20260503222515 17 304 4.8 9.7 0.00 0.00 0.00 33 1014.4
20260503221535 17 317 4.8 9.7 0.00 0.00 0.00 33 1014.6
20260503220516 17 312 4.8 12.9 0.00 0.00 0.00 34 1014.6
20260503215515 17 319 4.8 8.0 0.00 0.00 0.00 34 1014.6
20260503214516 17 307 6.4 11.3 0.00 0.00 0.00 34 1014.6
20260503213516 16 316 6.4 11.3 0.00 0.00 0.00 35 1014.5
20260503212516 16 310 8.0 14.5 0.00 0.00 0.00 35 1014.6
20260503211516 16 312 6.4 11.3 0.00 0.00 0.00 37 1014.5
20260503210516 16 313 8.0 14.5 0.00 0.00 0.00 36 1014.5
20260503205557 16 299 8.0 16.1 0.00 0.00 0.00 36 1014.6
20260503204517 16 320 6.4 16.1 0.00 0.00 0.00 37 1014.7
20260503203517 16 306 4.8 9.7 0.00 0.00 0.00 38 1014.8
20260503202517 16 308 4.8 11.3 0.00 0.00 0.00 36 1014.9
20260503201537 16 308 4.8 14.5 0.00 0.00 0.00 37 1014.9
20260503200518 16 299 6.4 11.3 0.00 0.00 0.00 36 1015.1
20260503195518 16 311 6.4 12.9 0.00 0.00 0.00 37 1015.3
20260503194518 16 313 8.0 12.9 0.00 0.00 0.00 38 1015.3
20260503193518 15 309 6.4 12.9 0.00 0.00 0.00 38 1015.4
20260503192515 15 302 8.0 16.1 0.00 0.00 0.00 38 1015.5
20260503191515 15 305 6.4 11.3 0.00 0.00 0.00 38 1015.7
20260503190556 15 307 6.4 14.5 0.00 0.00 0.00 38 1015.8
20260503185516 15 300 8.0 14.5 0.00 0.00 0.00 38 1015.9
20260503184536 15 317 4.8 12.9 0.00 0.00 0.00 39 1015.9
20260503183516 15 288 9.7 16.1 0.00 0.00 0.00 38 1016.1
20260503182536 14 308 6.4 16.1 0.00 0.00 0.00 39 1016.1
20260503181516 14 301 4.8 12.9 0.00 0.00 0.00 38 1016.1
20260503180517 14 307 8.0 16.1 0.00 0.00 0.00 40 1016.1
20260503175517 13 321 6.4 12.9 0.00 0.00 0.00 39 1016.3
20260503174517 13 319 8.0 14.5 0.00 0.00 0.00 39 1016.4
20260503173517 13 298 6.4 14.5 0.00 0.00 0.00 39 1016.3
20260503172517 13 316 6.4 14.5 0.00 0.00 0.00 39 1016.4
20260503171538 13 301 8.0 16.1 0.00 0.00 0.00 39 1016.5
20260503170518 13 314 8.0 16.1 0.00 0.00 0.00 40 1016.5
20260503150516 10 297 6.4 14.5 0.00 0.00 0.00 45 1017.0
20260503130515 8 301 8.0 14.5 0.00 0.00 0.00 54 1017.1
20260503110517 6 311 9.7 16.1 0.00 0.00 0.00 65 1016.0